Location: The Saddle
(36.8333°N, 80.3417°W)
Time: 16:44:05
(UTC-04:00)

BlueWalker 3 - Pass Details

Date: 23 October 2024
Orbit: 471 x 482 km, 53.2° (Epoch: 02 November)

Event Time Altitude Azimuth Distance (km) Brightness Sun altitude
Exits shadow 05:25:59 26° 45° (NE) 947 3.7 -26.8°
Drops below altitude 10° 05:28:48 10° 94° (E) 1,627 5.5 -26.3°
Sets 05:31:10 0° 107° (ESE) 2,503 6.6 -25.8°
